• In Österreich
  • Länderverzeichnis
  • Für 7 Tage
  • Wassertemperatur
  • Satellitenkarten
  • Wetterkarte
  • News
  • Widgets
  • user-avatar
    Anmelden

    Stündliche Wetter Barra

    Heute, 14 Dezember, Donnerstag

    Zeit Temperatur Niederschläge Wind Luftdruck Luftfeuchtigkeit
    00:00 +24°C° 0,1 mm 2 m/S 747 mmHg 86%
    01:00 +23°C° 0,1 mm 2 m/S 747 mmHg 88%
    02:00 +23°C° 0,1 mm 2 m/S 747 mmHg 90%
    03:00 +23°C° 0,1 mm 2 m/S 746 mmHg 92%
    04:00 +23°C° 0 mm 2 m/S 746 mmHg 93%
    05:00 +24°C° 0 mm 2 m/S 746 mmHg 89%
    06:00 +25°C° 0 mm 2 m/S 746 mmHg 84%
    07:00 +25°C° 0 mm 2 m/S 747 mmHg 80%
    08:00 +28°C° 0 mm 2 m/S 747 mmHg 67%
    09:00 +30°C° 0 mm 3 m/S 746 mmHg 54%
    10:00 +34°C° 0 mm 3 m/S 746 mmHg 44%
    11:00 +35°C° 0 mm 3 m/S 746 mmHg 41%
    12:00 +36°C° 0 mm 3 m/S 745 mmHg 37%
    13:00 +36°C° 0 mm 4 m/S 745 mmHg 34%
    14:00 +36°C° 0 mm 4 m/S 745 mmHg 36%
    15:00 +35°C° 0 mm 4 m/S 744 mmHg 38%
    16:00 +33°C° 0 mm 3 m/S 744 mmHg 45%
    17:00 +31°C° 0 mm 3 m/S 744 mmHg 53%
    18:00 +29°C° 0 mm 3 m/S 745 mmHg 61%
    19:00 +27°C° 0 mm 2 m/S 745 mmHg 69%
    20:00 +26°C° 0 mm 2 m/S 746 mmHg 74%
    21:00 +25°C° 0 mm 2 m/S 746 mmHg 79%
    22:00 +25°C° 0 mm 2 m/S 746 mmHg 84%
    23:00 +24°C° 0 mm 2 m/S 746 mmHg 86%

    Morgen, 15 Dezember, Freitag

    Zeit Temperatur Niederschläge Wind Luftdruck Luftfeuchtigkeit
    00:00 +24°C° 0 mm 2 m/S 746 mmHg 89%
    01:00 +24°C° 0 mm 2 m/S 746 mmHg 91%
    02:00 +24°C° 0 mm 2 m/S 746 mmHg 91%
    03:00 +24°C° 0 mm 2 m/S 746 mmHg 92%
    04:00 +24°C° 0 mm 2 m/S 745 mmHg 93%
    05:00 +25°C° 0 mm 2 m/S 746 mmHg 88%
    06:00 +26°C° 0 mm 2 m/S 746 mmHg 84%
    07:00 +27°C° 0 mm 2 m/S 746 mmHg 80%
    08:00 +29°C° 0 mm 2 m/S 746 mmHg 70%
    09:00 +30°C° 0 mm 2 m/S 746 mmHg 60%
    10:00 +32°C° 0 mm 2 m/S 746 mmHg 50%
    11:00 +34°C° 0 mm 3 m/S 746 mmHg 46%
    12:00 +35°C° 0 mm 3 m/S 745 mmHg 41%
    13:00 +36°C° 0 mm 3 m/S 745 mmHg 37%
    14:00 +36°C° 0 mm 3 m/S 744 mmHg 38%
    15:00 +35°C° 0 mm 3 m/S 744 mmHg 40%
    16:00 +35°C° 0 mm 4 m/S 743 mmHg 41%
    17:00 +33°C° 0 mm 3 m/S 744 mmHg 50%
    18:00 +30°C° 0 mm 3 m/S 744 mmHg 58%
    19:00 +28°C° 0 mm 3 m/S 744 mmHg 66%
    20:00 +27°C° 0 mm 2 m/S 745 mmHg 71%
    21:00 +26°C° 0 mm 2 m/S 746 mmHg 75%
    22:00 +25°C° 0 mm 2 m/S 747 mmHg 79%
    23:00 +25°C° 0 mm 2 m/S 746 mmHg 81%

    übermorgen, 16 Dezember, Samstag

    Zeit Temperatur Niederschläge Wind Luftdruck Luftfeuchtigkeit
    00:00 +25°C° 0 mm 2 m/S 746 mmHg 84%
    01:00 +25°C° 0 mm 2 m/S 746 mmHg 86%
    02:00 +25°C° 0 mm 2 m/S 746 mmHg 88%
    03:00 +25°C° 0 mm 2 m/S 746 mmHg 89%
    04:00 +25°C° 0 mm 2 m/S 746 mmHg 91%
    05:00 +26°C° 0 mm 2 m/S 746 mmHg 87%
    06:00 +26°C° 0 mm 2 m/S 747 mmHg 84%
    07:00 +27°C° 0 mm 2 m/S 747 mmHg 81%
    08:00 +29°C° 0 mm 2 m/S 747 mmHg 72%
    09:00 +31°C° 0 mm 2 m/S 747 mmHg 63%
    10:00 +32°C° 0 mm 2 m/S 747 mmHg 53%
    11:00 +34°C° 0 mm 3 m/S 747 mmHg 47%
    12:00 +36°C° 0 mm 3 m/S 746 mmHg 41%
    13:00 +37°C° 0 mm 3 m/S 746 mmHg 36%
    14:00 +36°C° 0 mm 4 m/S 745 mmHg 37%
    15:00 +36°C° 0 mm 4 m/S 745 mmHg 39%
    16:00 +35°C° 0 mm 4 m/S 744 mmHg 40%
    17:00 +33°C° 0 mm 3 m/S 745 mmHg 50%
    18:00 +30°C° 0 mm 3 m/S 745 mmHg 60%
    19:00 +28°C° 0 mm 3 m/S 746 mmHg 70%
    20:00 +27°C° 0 mm 3 m/S 746 mmHg 76%
    21:00 +26°C° 0 mm 3 m/S 747 mmHg 82%
    22:00 +26°C° 0 mm 2 m/S 747 mmHg 88%
    23:00 +26°C° 0,4 mm 3 m/S 747 mmHg 88%

    17 Dezember, Sonntag

    Zeit Temperatur Niederschläge Wind Luftdruck Luftfeuchtigkeit
    00:00 +26°C° 0,4 mm 3 m/S 747 mmHg 89%
    01:00 +26°C° 0,4 mm 3 m/S 747 mmHg 89%
    02:00 +26°C° 0,5 mm 3 m/S 746 mmHg 90%
    03:00 +25°C° 0,5 mm 3 m/S 746 mmHg 91%
    04:00 +25°C° 0,5 mm 3 m/S 746 mmHg 92%
    05:00 +26°C° 0,1 mm 3 m/S 746 mmHg 89%
    06:00 +26°C° 0,1 mm 3 m/S 747 mmHg 85%
    07:00 +27°C° 0,1 mm 3 m/S 747 mmHg 82%
    08:00 +29°C° 0 mm 3 m/S 747 mmHg 71%
    09:00 +32°C° 0 mm 4 m/S 747 mmHg 60%
    10:00 +34°C° 0 mm 4 m/S 747 mmHg 50%
    11:00 +35°C° 0 mm 4 m/S 747 mmHg 46%
    12:00 +35°C° 0 mm 5 m/S 746 mmHg 42%
    13:00 +36°C° 0 mm 5 m/S 746 mmHg 38%
    14:00 +36°C° 0 mm 5 m/S 745 mmHg 38%
    15:00 +35°C° 0 mm 5 m/S 745 mmHg 38%
    16:00 +35°C° 0 mm 4 m/S 744 mmHg 37%
    17:00 +33°C° 0 mm 4 m/S 745 mmHg 48%
    18:00 +30°C° 0 mm 4 m/S 745 mmHg 59%
    19:00 +28°C° 0 mm 3 m/S 746 mmHg 70%
    20:00 +27°C° 0 mm 3 m/S 746 mmHg 76%
    21:00 +26°C° 0 mm 3 m/S 746 mmHg 81%
    22:00 +26°C° 0 mm 3 m/S 747 mmHg 86%
    23:00 +26°C° 0 mm 3 m/S 747 mmHg 87%

    18 Dezember, Montag

    Zeit Temperatur Niederschläge Wind Luftdruck Luftfeuchtigkeit
    00:00 +26°C° 0 mm 3 m/S 746 mmHg 88%
    01:00 +25°C° 0 mm 3 m/S 746 mmHg 89%
    02:00 +25°C° 0,2 mm 3 m/S 746 mmHg 90%
    03:00 +25°C° 0,2 mm 3 m/S 745 mmHg 91%
    04:00 +24°C° 0,2 mm 3 m/S 745 mmHg 92%
    05:00 +25°C° 0,4 mm 4 m/S 746 mmHg 89%
    06:00 +26°C° 0,4 mm 4 m/S 746 mmHg 85%
    07:00 +27°C° 0,4 mm 4 m/S 747 mmHg 82%
    08:00 +28°C° 0,4 mm 4 m/S 747 mmHg 73%
    09:00 +30°C° 0,4 mm 5 m/S 746 mmHg 65%
    10:00 +33°C° 0,4 mm 5 m/S 746 mmHg 56%
    11:00 +33°C° 0,2 mm 5 m/S 746 mmHg 54%
    12:00 +34°C° 0,2 mm 5 m/S 745 mmHg 51%
    13:00 +35°C° 0,2 mm 5 m/S 745 mmHg 48%
    14:00 +35°C° 0 mm 5 m/S 744 mmHg 49%
    15:00 +34°C° 0 mm 5 m/S 744 mmHg 50%
    16:00 +34°C° 0 mm 5 m/S 744 mmHg 51%
    17:00 +32°C° 0,1 mm 4 m/S 744 mmHg 60%
    18:00 +29°C° 0,1 mm 4 m/S 745 mmHg 68%
    19:00 +28°C° 0,1 mm 4 m/S 745 mmHg 77%
    20:00 +27°C° 0,1 mm 4 m/S 746 mmHg 82%
    21:00 +26°C° 0,1 mm 4 m/S 746 mmHg 86%
    22:00 +26°C° 0,1 mm 4 m/S 747 mmHg 91%
    23:00 +26°C° 0,1 mm 3 m/S 746 mmHg 92%

    19 Dezember, Dienstag

    Zeit Temperatur Niederschläge Wind Luftdruck Luftfeuchtigkeit
    00:00 +26°C° 0,1 mm 3 m/S 746 mmHg 92%
    01:00 +26°C° 0,1 mm 3 m/S 746 mmHg 92%
    02:00 +25°C° 0,2 mm 3 m/S 745 mmHg 92%
    03:00 +25°C° 0,2 mm 3 m/S 745 mmHg 93%
    04:00 +25°C° 0,2 mm 3 m/S 745 mmHg 93%
    05:00 +26°C° 0,1 mm 3 m/S 745 mmHg 91%
    06:00 +26°C° 0,1 mm 3 m/S 746 mmHg 88%
    07:00 +27°C° 0,1 mm 3 m/S 747 mmHg 86%
    08:00 +29°C° 0,2 mm 3 m/S 746 mmHg 75%
    09:00 +32°C° 0,2 mm 4 m/S 746 mmHg 64%
    10:00 +34°C° 0,2 mm 4 m/S 746 mmHg 53%
    11:00 +34°C° 0,1 mm 4 m/S 746 mmHg 51%
    12:00 +35°C° 0,1 mm 4 m/S 745 mmHg 48%
    13:00 +36°C° 0,1 mm 4 m/S 744 mmHg 46%
    14:00 +35°C° 0 mm 4 m/S 744 mmHg 48%
    15:00 +35°C° 0 mm 4 m/S 744 mmHg 50%
    16:00 +34°C° 0 mm 4 m/S 743 mmHg 53%
    17:00 +32°C° 0 mm 4 m/S 744 mmHg 61%
    18:00 +30°C° 0 mm 3 m/S 744 mmHg 70%
    19:00 +28°C° 0 mm 3 m/S 744 mmHg 79%
    20:00 +27°C° 0 mm 3 m/S 745 mmHg 83%
    21:00 +27°C° 0 mm 3 m/S 746 mmHg 87%
    22:00 +26°C° 0 mm 3 m/S 746 mmHg 91%
    23:00 +26°C° 0 mm 3 m/S 746 mmHg 91%
    Mehr zeigen